User: anonymous   Login
Location: Nebula Knoll Observatory
(43.6666°N, 71.0000°W)
Time: 01:09:20
(UTC-05:00)
Language:

Cosmos 1782 - Orbit

View from above orbital plane
View from above orbital plane
View from above satellite
View from above satellite

Ground track
Ground track

The orbit data is extracted from the following two-line orbital elements,

1 16986U 86074A   17052.07743173  .00000106  00000-0  51753-5 0  9995
2 16986  82.5050 234.1610 0011303  27.5722 332.6102 15.06444126653376
Epoch (UTC): 21 February 2017 01:51:30
Eccentricity: 0.0011303
inclination: 82.5050°
perigee height: 539 km
apogee height: 555 km
right ascension of ascending node: 234.1610°
argument of perigee: 27.5722°
revolutions per day: 15.06444126
mean anomaly at epoch: 332.6102°
orbit number at epoch: 65337

The dashed part of the orbit path shows where the satellite is in the earth's shadow,  

DLR